Greenville, SC

5:38 PM EDT on October 01, 2016 (GMT -0400)
Greenville Downtown

Weather History for KGMU - June, 2013

Change the Weather History Date:

Wednesday, June 5, 2013

  Actual Average Record
Temperature  
Mean Temperature 74 °F -  
Max Temperature 82 °F 81 °F 97 °F (2011)
Min Temperature 66 °F 62 °F 57 °F (1997)
Cooling Degree Days 8    
Growing Degree Days 24 (Base 50)    
Moisture  
Dew Point 66 °F    
Average Humidity 81    
Maximum Humidity 94    
Minimum Humidity 64    
Precipitation  
Precipitation 0.76 in - - ()
Sea Level Pressure  
Sea Level Pressure 30.03 in    
Wind  
Wind Speed 8 mph (ENE)    
Max Wind Speed 17 mph    
Max Gust Speed 24 mph    
Visibility 8 miles    
Events Rain , Thunderstorm    
Averages and records for this station are not official NWS values.
T = Trace of Precipitation, MM = Missing Value Source: NWS Daily Summary

Daily Weather History Graph

Daily Weather History Graph

Search for Another Location

Airport or City:

Trip Planner

Search our weather history database for the weather conditions in past years. The results will help you decide how hot, cold, wet, or windy it might be!

Date:

Astronomy

Jun. 05, 2013 Rise Set
Actual Time 6:15 AM EDT 8:40 PM EDT
Civil Twilight 5:46 AM EDT 9:09 PM EDT
Nautical Twilight 5:10 AM EDT 9:45 PM EDT
Astronomical Twilight 4:31 AM EDT 10:25 PM EDT
Moon 4:13 AM EDT (6/5) 6:10 PM EDT (6/5)
Length of Visible Light 15h 22m
Length of Day
14h 24m
Waning Crescent, 8% of the Moon is Illuminated
Jun 5
Waning Crescent
Jun 8
New
Jun 16
First Quarter
Jun 23
Full
Jun 30
Last Quarter

Hourly Weather History & Observations

Time (EDT) Temp. Heat Index Dew Point Humidity Pressure Visibility Wind Dir Wind Speed Gust Speed Precip Events Conditions
12:53 AM 72.0 °F - 64.0 °F 76% 30.06 in 10.0 mi ENE 9.2 mph - N/A   Mostly Cloudy
1:17 AM 71.6 °F - 64.4 °F 78% 30.09 in 10.0 mi ENE 6.9 mph - N/A   Mostly Cloudy
1:53 AM 72.0 °F - 64.9 °F 78% 30.06 in 10.0 mi NE 9.2 mph - N/A   Mostly Cloudy
2:35 AM 71.6 °F - 64.4 °F 78% 30.08 in 10.0 mi NNE 6.9 mph - N/A   Scattered Clouds
2:53 AM 71.1 °F - 64.0 °F 78% 30.04 in 10.0 mi NE 9.2 mph - N/A   Partly Cloudy
3:37 AM 69.8 °F - 64.4 °F 83% 30.07 in 10.0 mi NNE 6.9 mph - N/A   Mostly Cloudy
3:53 AM 70.0 °F - 64.0 °F 81% 30.04 in 10.0 mi NNE 8.1 mph - N/A   Overcast
4:33 AM 71.6 °F - 64.4 °F 78% 30.07 in 10.0 mi NE 9.2 mph - N/A   Overcast
4:53 AM 71.1 °F - 64.0 °F 78% 30.05 in 10.0 mi NNE 10.4 mph - N/A   Overcast
5:23 AM 71.6 °F - 64.4 °F 78% 30.07 in 10.0 mi NNE 12.7 mph - N/A   Overcast
5:53 AM 71.1 °F - 64.0 °F 78% 30.05 in 10.0 mi ENE 8.1 mph - N/A   Overcast
6:53 AM 70.0 °F - 64.0 °F 81% 30.06 in 10.0 mi ENE 9.2 mph - N/A   Overcast
7:53 AM 70.0 °F - 64.9 °F 84% 30.09 in 8.0 mi NE 10.4 mph - N/A   Overcast
8:53 AM 70.0 °F - 64.9 °F 84% 30.09 in 7.0 mi NNE 12.7 mph - N/A   Overcast
9:53 AM 73.0 °F - 64.9 °F 76% 30.09 in 10.0 mi NE 9.2 mph - N/A   Overcast
10:53 AM 73.9 °F - 66.0 °F 76% 30.08 in 10.0 mi ENE 9.2 mph - N/A   Overcast
11:53 AM 77.0 °F - 66.9 °F 71% 30.07 in 10.0 mi ENE 9.2 mph - N/A   Overcast
12:06 PM 78.8 °F - 68.0 °F 69% 30.09 in 10.0 mi NE 10.4 mph - N/A   Mostly Cloudy
12:53 PM 77.0 °F - 66.9 °F 71% 30.06 in 10.0 mi ENE 10.4 mph - N/A   Overcast
1:08 PM 77.0 °F - 66.2 °F 69% 30.08 in 10.0 mi ENE 6.9 mph - N/A   Overcast
1:53 PM 78.1 °F - 66.9 °F 68% 30.04 in 10.0 mi NNE 6.9 mph - N/A   Mostly Cloudy
2:33 PM 78.8 °F - 66.2 °F 65% 30.05 in 10.0 mi NE 9.2 mph - N/A   Mostly Cloudy
2:46 PM 78.8 °F - 68.0 °F 69% 30.05 in 10.0 mi ENE 8.1 mph - N/A   Mostly Cloudy
2:53 PM 81.0 °F 83.8 °F 68.0 °F 65% 30.01 in 10.0 mi East 8.1 mph - N/A   Mostly Cloudy
3:53 PM 81.0 °F 83.8 °F 68.0 °F 65% 29.98 in 10.0 mi East 10.4 mph - N/A   Scattered Clouds
4:53 PM 80.1 °F 82.3 °F 66.9 °F 64% 29.97 in 10.0 mi ENE 11.5 mph - N/A   Mostly Cloudy
5:00 PM 80.6 °F 83.2 °F 68.0 °F 65% 30.00 in 10.0 mi East 11.5 mph - N/A Thunderstorm Mostly Cloudy
5:19 PM 78.8 °F - 69.8 °F 74% 30.00 in 9.0 mi SE 11.5 mph - 0.00 in Rain Light Rain
5:36 PM 73.4 °F - 68.0 °F 83% 30.00 in 3.0 mi East 9.2 mph 20.7 mph 0.05 in Rain Heavy Rain
5:53 PM 72.0 °F - 66.9 °F 84% 29.98 in 7.0 mi ENE 8.1 mph - 0.08 in Rain Light Rain
6:00 PM 71.6 °F - 68.0 °F 88% 30.00 in 7.0 mi East 10.4 mph 17.3 mph 0.00 in Rain , Thunderstorm Light Rain
6:27 PM 71.6 °F - 68.0 °F 88% 30.00 in 1.8 mi SE 8.1 mph - 0.13 in Rain , Thunderstorm Heavy Rain
6:32 PM 69.8 °F - 68.0 °F 94% 30.00 in 1.2 mi SSE 10.4 mph - 0.22 in Rain , Thunderstorm Heavy Rain
6:45 PM 69.8 °F - 68.0 °F 94% 30.01 in 1.5 mi South 17.3 mph 24.2 mph 0.33 in Rain , Thunderstorm Heavy Rain
6:53 PM 68.0 °F - 66.0 °F 93% 29.99 in 1.5 mi South 11.5 mph 24.2 mph 0.40 in Rain , Thunderstorm Heavy Rain
6:58 PM 68.0 °F - 66.2 °F 94% 30.01 in 2.0 mi SSE 12.7 mph - 0.04 in Rain Heavy Rain
7:06 PM 68.0 °F - 64.4 °F 88% 30.00 in 1.5 mi South 12.7 mph - 0.10 in Rain , Thunderstorm Heavy Rain
7:21 PM 66.2 °F - 64.4 °F 94% 30.01 in 2.0 mi SSE 9.2 mph - 0.20 in Rain Heavy Rain
7:30 PM 68.0 °F - 64.4 °F 88% 30.02 in 4.0 mi SE 5.8 mph - 0.22 in Rain Rain
7:53 PM 69.1 °F - 66.0 °F 90% 30.00 in 10.0 mi SSE 4.6 mph - 0.24 in Rain Light Rain
8:05 PM 69.8 °F - 66.2 °F 88% 30.03 in 10.0 mi ESE 4.6 mph - 0.00 in Rain Light Rain
8:35 PM 69.8 °F - 66.2 °F 88% 30.02 in 10.0 mi ESE 5.8 mph - 0.01 in Rain Light Rain
8:53 PM 69.1 °F - 66.9 °F 93% 29.99 in 9.0 mi East 3.5 mph - 0.04 in Rain Light Rain
9:50 PM 69.8 °F - 66.2 °F 88% 30.03 in 10.0 mi Calm Calm - 0.00 in   Overcast
9:53 PM 70.0 °F - 66.9 °F 90% 30.01 in 10.0 mi Calm Calm - 0.00 in   Overcast
10:16 PM 69.8 °F - 66.2 °F 88% 30.03 in 10.0 mi Calm Calm - N/A   Overcast
10:34 PM 69.8 °F - 66.2 °F 88% 30.03 in 10.0 mi Calm Calm - N/A   Overcast
10:53 PM 70.0 °F - 68.0 °F 93% 30.01 in 10.0 mi Calm Calm - N/A   Overcast
11:53 PM 70.0 °F - 68.0 °F 93% 29.99 in 10.0 mi Calm Calm - N/A   Overcast